COSMOS 2011

Satellite information

Favourite Embed

Satellite Type and Status

PAYLOADIN ORBIT

Key statistics

Satellite COSMOS 2011 at a glance.

Uptime

13256

Days in orbit

Revolutions

≈ 12.5

Per day

Orbit

LEO

Low Earth Orbit

Inclination

74.0

Latest

Satellite identification and parameters

Extended collection of information and parameters for COSMOS 2011.

Object identification

Identified? True

Debris? False

Object name: COSMOS 2011

International designator: 1989-025D

Object number (NORAD): 19905

Object ID (CCSDS): 19905

Country: COMMONWEALTH OF INDEPENDENT STATES (CIS)

Current information (Y/N): Y

RCS size: MEDIUM

Orbital parameters

Period: 114.997 minutes

Inclination: 74.0123 deg

SMA: 7833.427 km

Apoapsis: 1472.01 km

Periapsis: 1438.574 km

RAAN: 329.3232 deg

Eccentricy: 0.0021342

Argument of periapsis: 297.4007 deg

Mean anomaly: 184.9881 deg

Mean motion: 12.52203988 rev/day

Mean motion (dot): -0.00000028 rev/day2

B* drag term: -0.000078371 1/REarth

Two-line elements (TLE)

Creation date: July 9, 2025, 2:22 a.m.

Reference frame: TEME

Reference center: EARTH

Epoch: July 8, 2025, 9:28 p.m. UTC

TLE line 0: 0 COSMOS 2011

TLE line 1: 1 19905U 89025D 25189.89447488 -.00000028 00000-0 -78371-4 0 9997

TLE line 2: 2 19905 74.0123 329.3232 0021342 297.4007 184.9881 12.52203988658949

Live tracking on map

Real-time ground track for satellite COSMOS 2011.

In-orbit conjunctions

A list of the most updated potential collisions computed for object COSMOS 2011.

Target Orbit TCA Probability of collision Miss distance Type
THORAD DELTA 1 DEB SSO 2024-12-31 01:55:15 0.0001308918 268.0 (m) DEBRIS

Associated space launch

Military communications satellites

COSMOS 2011 was lifted into orbit during the mission ‘Kosmos-3M | Strela-1M 337-344’, on board a Kosmos-3M space rocket.

The launch took place on March 24, 1989, 1:38 p.m. from 132/2.

For more information about the launch, click the button.

Launch to space Kosmos-3M | Strela-1M 337-344
Kosmos-3M | Strela-1M 337-344

Agency: N/A

Status: Launch Successful

Launch date: March 24, 1989, 1:38 p.m. UTC

Rocket: Kosmos-3M

Launch pad: 132/2

Location: Plesetsk Cosmodrome, Russian Federation

...

Latest news about this satellite

There are no fresh news available about this satellite. Check back as we update our databases every day.


Newsletter sign-up

Weekly statistics, charts and insights to help you stay on top of the space industry.